Monte Cimone, Italy

1:38 PM CEST on June 27, 2017 (GMT +0200)
Monte Cimone

Weather History for LIVC - December, 2013

Change the Weather History Date:

Sunday, December 1, 2013

  Actual Average Record
Temperature  
Mean Temperature 20 °F -  
Max Temperature 20 °F 31 °F 48 °F (1998)
Min Temperature 19 °F 23 °F 15 °F (1998)
Degree Days  
Heating Degree Days 46    
Moisture  
Dew Point 17 °F    
Average Humidity 87    
Maximum Humidity 93    
Minimum Humidity 80    
Precipitation  
Precipitation 0.00 in 0.07 in - ()
Sea Level Pressure  
Sea Level Pressure 29.84 in    
Wind  
Wind Speed 46 mph ()    
Max Wind Speed 68 mph    
Max Gust Speed -    
Visibility 0.2 miles    
Events Fog    
Averages and records for this station are not official NWS values.
T = Trace of Precipitation, MM = Missing Value Source: Averaged Metar Reports

Daily Weather History Graph

Daily Weather History Graph

Search for Another Location

Airport or City:

Trip Planner

Search our weather history database for the weather conditions in past years. The results will help you decide how hot, cold, wet, or windy it might be!

Date:

Astronomy

Dec. 01, 2013 Rise Set
Actual Time 7:32 AM CET 4:39 PM CET
Civil Twilight 6:59 AM CET 5:12 PM CET
Nautical Twilight 6:23 AM CET 5:48 PM CET
Astronomical Twilight 5:49 AM CET 6:23 PM CET
Moon 5:28 AM CET (12/1) 3:39 PM CET (12/1)
Length of Visible Light 10h 12m
Length of Day
9h 07m
Waning Crescent, 3% of the Moon is Illuminated
Dec 1
Waning Crescent
Dec 3
New
Dec 9
First Quarter
Dec 17
Full
Dec 25
Last Quarter

Hourly Weather History & Observations

Time (CET) Temp. Windchill Dew Point Humidity Pressure Visibility Wind Dir Wind Speed Gust Speed Precip Events Conditions
12:00 AM 20 °F - 17 °F 82%  in 0 mi North 40.3 mph - - Fog Heavy Fog
12:55 AM 19.4 °F -2.0 °F 17.6 °F 93% 29.89 in 0.0 mi North 41.4 mph - N/A Fog Light Freezing Fog
1:00 AM 20 °F - 17 °F 82%  in 0 mi North 41.4 mph - - Fog Heavy Fog
1:55 AM 23.0 °F 1.3 °F 19.4 °F 86% 29.86 in 0.0 mi NNW 51.8 mph - N/A Fog Light Freezing Fog
2:00 AM 22 °F - 19 °F 84%  in 0 mi NNW 51.8 mph - - Fog Heavy Fog
2:55 AM 23.0 °F 0.6 °F 19.4 °F 86% 29.86 in 0.0 mi NNW 56.4 mph - N/A Fog Light Freezing Fog
3:00 AM 23 °F - 20 °F 81%  in 0 mi NNW 56.4 mph - - Fog Heavy Fog
3:55 AM 23.0 °F 2.6 °F 19.4 °F 86% 29.86 in 0.0 mi North 43.7 mph - N/A Fog Light Freezing Fog
4:55 AM 21.2 °F -0.7 °F 19.4 °F 93% 29.86 in 0.0 mi North 48.3 mph - N/A Fog Light Freezing Fog
5:00 AM 22 °F - 19 °F 82%  in 0 mi North 48.3 mph - - Fog Heavy Fog
5:55 AM 21.2 °F -0.5 °F 17.6 °F 86% 29.86 in 0.0 mi North 47.2 mph - N/A Fog Light Freezing Fog
6:00 AM 20 °F - 18 °F 90%  in 0 mi North 47.2 mph - - Fog Heavy Fog
6:55 AM 21.2 °F -1.1 °F 19.4 °F 93% 29.86 in 0.0 mi NNW 50.6 mph - N/A Fog Light Freezing Fog
7:00 AM 21 °F - 19 °F 87%  in 0 mi NNW 50.6 mph - - Fog Heavy Fog
7:55 AM 21.2 °F 0.1 °F 19.4 °F 93% 29.86 in 0.0 mi NNW 43.7 mph - N/A Fog Light Freezing Fog
8:55 AM 21.2 °F -0.3 °F 19.4 °F 93% 29.89 in 0.0 mi NNW 46.0 mph - N/A Fog Light Freezing Fog
9:00 AM 21 °F - 19 °F 87%  in 0 mi NNW 46.0 mph - - Fog Heavy Fog
9:55 AM 21.2 °F 0.1 °F 17.6 °F 86% 29.86 in 0.0 mi NNW 43.7 mph - N/A Fog Light Freezing Fog
10:55 AM 19.4 °F -2.4 °F 17.6 °F 93% 29.89 in 0.0 mi NNW 43.7 mph - N/A Fog Light Freezing Fog
11:00 AM 20 °F - 18 °F 88%  in 0 mi NNW 43.7 mph - - Fog Heavy Fog
11:55 AM 21.2 °F 0.7 °F 17.6 °F 86% 29.86 in 0.0 mi NNW 40.3 mph - N/A Fog Light Freezing Fog
12:00 PM 20 °F - 18 °F 90%  in 0 mi NNW 40.3 mph - - Fog Heavy Fog
12:55 PM 21.2 °F 0.7 °F 17.6 °F 86% 29.86 in 0.0 mi NNW 40.3 mph - N/A Fog Light Freezing Fog
1:00 PM 20 °F - 18 °F 90%  in 0 mi NNW 40.3 mph - - Fog Heavy Fog
1:55 PM 21.2 °F -1.6 °F 17.6 °F 86% 29.83 in 0.2 mi NNW 54.1 mph - N/A Fog Light Freezing Fog
2:00 PM 20 °F - 18 °F 90%  in 0 mi NNW 54.1 mph - - Fog Heavy Fog
2:55 PM 19.4 °F -4.4 °F 17.6 °F 93% 29.80 in 0.2 mi North 55.2 mph - N/A Fog Light Freezing Fog
3:00 PM 20 °F - 17 °F 85%  in 0 mi North 55.2 mph - - Fog Heavy Fog
3:55 PM 19.4 °F -4.7 °F 15.8 °F 86% 29.77 in 0.2 mi NNE 57.5 mph - N/A Fog Light Freezing Fog
4:55 PM 19.4 °F -5.2 °F 15.8 °F 86% 29.77 in 0.2 mi NNE 61.0 mph - N/A Fog Light Freezing Fog
5:00 PM 19 °F - 16 °F 84%  in 0 mi NNE 61.0 mph - - Fog Heavy Fog
5:55 PM 19.4 °F -5.3 °F 15.8 °F 86% 29.77 in 0.2 mi NNE 62.1 mph - N/A Fog Light Freezing Fog
6:00 PM 19 °F - 16 °F 84%  in 0 mi NNE 62.1 mph - - Fog Heavy Fog
6:55 PM 19.4 °F -5.7 °F 15.8 °F 86% 29.77 in 0.7 mi NNE 64.4 mph - N/A   Mist
7:00 PM 19 °F - 15 °F 80%  in 1 mi NNE 64.4 mph - - Fog Light Fog
7:55 PM 19.4 °F -6.0 °F 15.8 °F 86% 29.80 in 0.7 mi NNE 66.7 mph - N/A   Mist
8:00 PM 19 °F - 16 °F 81%  in 1 mi NNE 66.7 mph - -   Mist
8:55 PM 19.4 °F -5.7 °F 15.8 °F 86% 29.83 in 0.7 mi NNE 64.4 mph - N/A   Mist
9:00 PM 19 °F - 16 °F 82%  in 1 mi NNE 64.4 mph - -   Mist
9:55 PM 19.4 °F -6.1 °F 15.8 °F 86% 29.86 in 0.7 mi NNE 67.9 mph - N/A   Mist
10:55 PM 19.4 °F -6.0 °F 15.8 °F 86% 29.86 in 0.7 mi NNE 66.7 mph - N/A   Mist
11:00 PM 19 °F - 16 °F 84%  in 1 mi NNE 66.7 mph - -   Mist
11:55 PM 19.4 °F -5.5 °F 15.8 °F 86% 29.89 in 0.7 mi NNE 63.3 mph - N/A   Mist